Tracking 29892 objects as of 21-Nov-2024
HD Live streaming from Space Station
objects crossing your sky now

GEESAT 3-07

Track GEESAT 3-07 now!
10-day predictions


NORAD ID: 61017
Int'l Code: 2024-159G
Perigee: 582.7 km
Apogee: 606.6 km
Inclination: 50.0 °
Period: 96.4 minutes
Semi major axis: 6965 km
RCS: Unknown
Launch date: September 5, 2024
Source: People's Republic of China (PRC)
Launch site: Taiyaun Space Center, China (TSC)
Your satellite tracking list
Your tracking list is empty




NASA's NSSDC Master Catalog

Two Line Element Set (TLE):
1 61017U 24159G   24326.10960484  .00008988  00000-0  86762-3 0  9990
2 61017  49.9929 240.6273 0017142 203.4772 156.5389 14.93344011 11372
Source of the keplerian elements: AFSPC